Wind_Speed
41 40 39 39 40 40 40 40 40 39 38 38 39 39 40 39 38 38 37 36 36 36 36 36 36 35 35 35 36 36 36 36 36 36 36 37 38 40 40 40 39 38
39 38 37 37 38 38 39 38 38 37 37 36 36 37 38 38 37 36 36 36 36 37 37 37 37 37 37 37 37 37 37 37 37 38 39 40 41 42 41 41 40 39
40 39 39 39 39 38 38 37 36 35 34 35 35 36 37 37 37 36 36 36 36 37 37 37 38 38 38 38 38 38 38 38 39 40 41 42 43 42 41 40 39 38
42 41 40 40 39 38 37 37 35 34 32 32 32 35 37 37 36 36 36 37 37 37 37 38 39 39 39 39 39 39 39 40 41 42 42 42 41 40 39 39 38 38
39 38 38 37 37 37 36 36 35 33 32 31 30 32 33 34 35 35 36 37 38 37 38 38 39 40 40 41 41 41 42 42 43 42 42 41 40 40 40 40 40 39
36 36 35 35 35 35 35 35 34 33 33 33 32 31 31 31 32 34 36 37 38 39 40 41 42 43 43 43 44 43 43 42 42 41 41 42 42 42 42 42 41 40
35 35 35 35 36 36 36 36 35 34 34 34 33 32 30 30 32 33 34 35 36 36 38 40 41 42 43 43 43 42 42 42 43 44 44 45 44 44 43 42 41 41
34 34 36 37 39 39 40 39 38 37 37 36 35 33 32 32 33 34 35 35 35 36 37 37 39 39 40 42 43 44 46 46 47 48 48 47 45 44 43 42 41 41
36 34 34 36 38 39 40 40 41 41 40 39 38 36 34 34 35 36 37 38 38 38 38 39 40 42 43 46 47 49 49 50 50 49 48 47 46 45 44 43 42 41
37 34 33 34 36 38 39 39 40 41 41 41 40 38 37 36 37 39 40 40 40 40 41 42 43 44 46 48 50 51 51 51 51 50 48 47 46 46 45 44 44 44
34 34 34 36 37 39 39 41 42 42 39 38 37 37 37 38 38 40 42 42 42 42 43 44 46 48 50 51 52 53 53 52 51 50 49 48 48 47 47 47 47 47
37 36 37 36 35 37 39 41 43 42 39 37 38 38 39 41 41 42 43 44 46 47 48 50 51 52 52 52 52 52 52 52 51 51 50 50 50 50 50 50 49 48
38 39 40 39 37 38 40 40 41 42 42 42 43 43 43 44 45 46 48 51 53 53 54 54 53 53 52 51 51 51 51 52 52 52 52 52 52 51 51 50 49 49
40 42 44 44 44 44 44 43 44 47 48 48 48 49 49 50 51 54 57 58 57 56 56 55 55 54 53 52 51 51 51 51 52 52 52 51 51 50 49 48 49 49
42 45 46 47 49 49 49 50 51 52 53 53 53 54 55 56 58 60 61 60 58 57 57 56 56 55 54 53 52 51 50 50 50 50 50 49 48 48 47 48 48 49
45 47 48 49 51 52 53 54 54 54 55 55 55 57 59 61 61 60 59 58 56 55 55 54 55 54 54 53 52 51 50 49 48 48 48 47 47 47 48 49 50 51
56 55 54 54 55 55 54 54 55 56 57 58 60 62 62 61 60 59 57 56 54 53 53 54 54 53 52 51 50 50 49 48 48 48 47 48 49 50 51 51 52 53
64 63 61 60 59 57 57 57 58 60 61 62 63 63 62 61 61 60 59 57 55 55 56 57 56 54 52 50 49 49 49 49 49 50 50 51 52 53 53 54 54 55
67 66 64 61 60 59 58 59 60 61 62 63 62 62 61 61 60 59 58 57 58 59 60 59 57 54 52 50 49 48 48 49 50 51 51 52 53 54 54 55 55 56
69 69 66 63 62 61 60 61 61 62 62 61 60 59 58 59 58 57 57 59 60 60 59 56 52 50 49 49 49 48 48 49 50 51 52 53 54 55 55 56 56 57
69 70 70 68 66 64 63 63 62 63 64 63 61 60 60 62 63 60 58 59 59 58 57 55 52 50 49 50 50 51 51 52 53 55 56 57 58 59 60 60 61 61
68 68 68 69 68 67 67 66 64 64 65 63 61 60 58 60 63 61 56 54 54 54 54 56 57 56 55 55 55 55 55 56 58 59 61 62 63 64 66 67 67 68
71 71 70 69 69 69 69 69 68 67 66 64 62 60 57 59 62 62 58 55 56 56 56 59 63 64 63 63 62 61 61 61 62 63 64 65 66 67 69 71 72 73
73 73 72 71 71 71 71 71 71 70 70 69 67 64 62 62 64 64 62 61 62 64 64 65 68 69 68 68 68 68 69 69 69 70 71 71 72 73 73 74 75 77
76 75 75 74 74 74 74 74 75 75 75 75 74 72 71 70 70 71 70 69 70 71 71 72 72 73 73 73 73 73 74 75 76 77 78 79 80 81 81 82 82 82
79 79 79 78 78 79 79 79 80 80 80 80 80 79 79 79 79 79 79 78 78 77 77 77 77 77 78 78 78 79 79 79 80 81 83 84 85 86 87 88 88 88
Wind_Direction
265 265 265 266 267 267 267 267 266 265 265 265 265 265 266 266 267 267 268 269 270 271 272 273 274 274 275 276 277 277 278 278 277 275 275 276 278 282 285 286 287 286
262 261 261 261 263 264 264 264 264 264 264 265 265 266 266 266 267 268 269 269 269 270 271 272 272 273 274 275 276 277 277 276 275 275 276 278 281 284 286 287 287 286
262 261 260 260 259 259 260 261 262 264 266 266 266 267 266 267 267 268 268 268 268 268 269 270 271 272 273 273 274 274 274 274 274 276 278 281 284 286 286 285 284 283
262 261 260 259 258 257 257 258 260 261 263 265 265 265 265 267 269 269 269 269 268 267 267 268 269 270 271 272 273 273 274 275 276 278 281 282 283 284 283 282 282 282
260 259 258 256 256 257 257 259 260 261 262 263 262 261 263 266 268 269 269 269 269 268 268 268 269 271 272 273 274 275 276 277 279 280 281 281 281 281 281 282 282 282
255 254 254 255 256 258 259 260 261 262 263 263 262 262 264 266 266 265 265 266 266 267 267 268 269 270 271 273 274 275 276 278 279 279 280 281 281 282 282 282 282 281
255 255 255 256 257 257 258 259 259 261 262 262 263 265 267 268 268 268 268 268 268 268 268 268 269 270 271 273 274 276 277 279 280 282 283 284 284 283 282 282 281 280
258 261 261 260 260 260 260 259 258 259 262 264 265 266 266 267 270 272 274 277 278 279 278 276 276 277 279 280 281 282 283 284 286 287 287 286 284 282 281 280 279 280
261 265 266 264 264 265 265 264 263 262 262 265 266 266 267 271 275 279 282 285 286 285 284 284 284 286 287 288 288 288 289 289 289 289 288 286 283 281 280 279 279 280
264 267 267 263 261 262 263 264 265 264 265 268 270 270 273 276 279 282 285 286 285 284 284 285 287 288 290 291 290 290 290 290 289 288 286 284 282 281 280 280 281 282
262 265 265 264 263 262 261 261 261 263 266 270 274 274 275 277 279 280 282 283 282 281 283 286 288 290 291 291 290 289 288 288 287 286 285 283 282 281 281 282 282 282
258 258 261 265 264 261 260 261 264 267 269 270 273 273 274 276 277 279 281 283 283 283 285 288 289 291 292 291 290 288 287 286 285 284 284 283 281 281 282 282 282 281
257 254 256 260 260 258 260 263 267 273 276 276 277 277 276 276 276 279 284 287 288 287 288 290 291 292 292 291 290 288 286 285 284 283 282 281 281 281 281 281 280 278
255 254 254 255 258 261 264 264 267 274 277 278 278 278 278 278 279 282 287 290 290 290 291 292 293 293 292 291 289 287 285 283 282 281 281 281 281 281 281 281 280 279
250 254 255 256 258 262 264 265 268 271 273 274 275 277 280 283 285 287 289 290 291 291 292 293 293 293 292 290 288 287 285 284 283 283 282 282 282 282 283 283 282 279
250 253 254 255 257 259 262 264 267 268 269 271 273 277 282 285 286 287 288 289 290 291 291 292 292 292 291 289 288 288 288 287 286 285 285 284 284 285 285 284 281 278
255 255 254 254 256 258 260 263 264 265 267 270 274 278 281 283 284 285 287 288 288 288 288 289 290 289 288 287 286 287 288 288 287 286 284 283 284 284 284 282 280 279
255 257 257 257 257 258 259 261 263 266 269 272 275 278 280 281 283 285 286 287 286 286 287 288 288 286 285 284 284 285 287 287 286 285 285 284 285 285 284 283 282 281
253 256 258 259 260 260 261 262 264 267 270 273 276 278 280 283 284 285 286 286 286 287 288 288 287 286 285 285 285 285 285 284 284 284 284 284 284 284 283 282 281 280
251 254 256 259 261 262 264 266 268 269 271 274 277 279 281 282 282 282 283 284 285 285 285 283 283 284 285 285 284 284 283 282 280 280 280 279 279 279 278 278 277 277
255 255 256 257 260 262 264 267 269 270 272 274 277 279 280 280 280 280 282 283 284 283 281 280 280 280 281 281 281 281 281 280 278 277 277 277 277 276 276 276 276 277
258 258 258 258 260 262 264 267 269 270 272 274 275 277 279 279 280 281 281 282 280 279 280 282 282 282 282 281 281 281 280 279 277 276 276 276 276 276 276 275 276 276
259 259 259 260 261 263 265 266 268 270 272 273 274 274 275 275 277 279 281 279 276 276 277 279 281 283 283 282 282 281 281 279 278 277 275 275 275 275 275 275 275 276
259 260 260 261 263 264 265 267 268 270 271 273 273 273 273 272 273 275 277 276 275 275 276 276 277 279 280 280 281 281 280 280 279 279 278 277 276 277 277 277 276 276
261 261 262 263 263 264 265 266 268 269 270 272 272 272 272 271 271 272 273 273 273 274 275 275 276 277 278 278 279 279 280 281 281 281 281 281 280 280 280 280 280 279
262 263 263 263 264 264 265 266 267 268 269 270 270 271 271 271 271 272 272 273 273 273 274 275 276 276 277 277 277 277 278 280 281 282 283 283 282 282 282 281 281 281
Height
10623 10623 10623 10623 10623 10623 10624 10625 10627 10628 10630 10631 10632 10632 10632 10633 10634 10636 10637 10638 10639 10639 10640 10641 10641 10642 10643 10644 10645 10646 10646 10646 10646 10646 10645 10646 10646 10645 10645 10644 10644 10643
10619 10619 10619 10618 10618 10619 10619 10620 10621 10623 10625 10626 10627 10627 10627 10628 10629 10631 10632 10633 10634 10634 10635 10636 10636 10637 10638 10640 10640 10641 10641 10641 10641 10641 10641 10640 10641 10641 10640 10640 10639 10638
10614 10614 10614 10614 10614 10615 10615 10616 10617 10618 10620 10621 10622 10622 10622 10623 10625 10626 10627 10628 10629 10629 10630 10631 10631 10632 10633 10634 10635 10635 10636 10636 10636 10636 10636 10636 10636 10636 10636 10635 10634 10633
10609 10609 10610 10609 10610 10610 10611 10612 10613 10615 10616 10617 10617 10616 10616 10618 10620 10621 10622 10623 10624 10625 10625 10626 10626 10627 10627 10628 10629 10630 10630 10631 10631 10631 10631 10631 10631 10631 10630 10630 10629 10628
10603 10604 10605 10605 10606 10606 10607 10608 10610 10611 10612 10612 10612 10612 10612 10614 10615 10616 10617 10618 10619 10620 10621 10621 10622 10622 10622 10623 10624 10625 10625 10626 10626 10626 10626 10626 10626 10625 10625 10624 10623 10623
10599 10601 10602 10602 10603 10603 10604 10605 10606 10607 10607 10607 10607 10608 10610 10611 10611 10611 10612 10613 10614 10616 10617 10617 10617 10618 10618 10619 10620 10620 10620 10620 10620 10620 10620 10620 10620 10620 10619 10618 10617 10617
10595 10597 10598 10599 10599 10599 10599 10600 10602 10602 10601 10601 10602 10604 10606 10607 10607 10607 10608 10609 10611 10612 10613 10613 10613 10614 10614 10615 10615 10615 10615 10615 10615 10615 10615 10615 10615 10614 10613 10612 10611 10611
10591 10592 10593 10593 10592 10592 10593 10595 10597 10597 10596 10597 10598 10600 10602 10602 10602 10602 10604 10605 10607 10608 10608 10609 10609 10610 10610 10610 10609 10609 10609 10609 10609 10609 10608 10608 10608 10607 10607 10606 10606 10605
10587 10587 10587 10586 10586 10586 10586 10588 10590 10591 10591 10592 10593 10595 10596 10598 10598 10597 10598 10600 10602 10602 10602 10603 10603 10604 10604 10604 10603 10603 10603 10603 10603 10602 10601 10601 10601 10601 10601 10600 10600 10599
10583 10583 10582 10581 10581 10580 10581 10581 10582 10584 10585 10587 10588 10590 10591 10593 10593 10593 10593 10595 10596 10596 10596 10597 10597 10598 10598 10597 10596 10596 10596 10596 10595 10595 10595 10594 10594 10594 10594 10594 10594 10593
10579 10579 10578 10576 10576 10576 10575 10574 10575 10577 10581 10583 10584 10585 10586 10587 10588 10589 10589 10590 10590 10590 10590 10591 10591 10591 10592 10591 10590 10589 10588 10588 10588 10588 10588 10588 10588 10588 10588 10588 10588 10588
10574 10574 10573 10572 10571 10570 10568 10567 10568 10572 10576 10577 10578 10580 10581 10581 10583 10584 10585 10585 10585 10585 10585 10585 10585 10585 10585 10584 10583 10582 10582 10582 10582 10582 10582 10582 10581 10581 10581 10581 10581 10581
10570 10569 10568 10568 10566 10564 10563 10564 10565 10566 10568 10570 10571 10574 10576 10577 10577 10578 10579 10578 10578 10578 10578 10578 10578 10578 10578 10578 10577 10577 10576 10576 10576 10576 10576 10576 10575 10575 10575 10575 10575 10575
10565 10563 10563 10564 10562 10560 10561 10562 10563 10562 10563 10564 10566 10567 10568 10570 10571 10571 10571 10571 10570 10570 10570 10570 10570 10570 10570 10570 10571 10571 10571 10570 10570 10571 10570 10570 10569 10569 10569 10569 10568 10569
10562 10560 10560 10561 10559 10558 10558 10559 10559 10559 10559 10560 10561 10561 10561 10562 10562 10563 10563 10562 10562 10561 10561 10562 10562 10562 10563 10563 10563 10563 10563 10563 10563 10563 10563 10563 10563 10562 10562 10562 10562 10562
10557 10557 10558 10558 10557 10556 10556 10556 10556 10556 10556 10556 10556 10556 10556 10555 10555 10555 10554 10554 10553 10553 10553 10553 10554 10554 10554 10554 10554 10554 10554 10555 10555 10555 10555 10555 10555 10554 10554 10555 10555 10555
10552 10552 10553 10554 10554 10553 10553 10553 10553 10552 10551 10551 10551 10551 10550 10550 10549 10548 10547 10547 10546 10545 10545 10546 10546 10546 10546 10546 10546 10546 10546 10546 10546 10547 10547 10547 10547 10547 10547 10547 10547 10547
10546 10545 10547 10548 10548 10549 10548 10548 10548 10547 10546 10545 10545 10544 10544 10543 10542 10541 10541 10540 10540 10539 10539 10539 10539 10539 10539 10540 10540 10539 10539 10538 10539 10539 10539 10539 10539 10539 10538 10538 10537 10537
10541 10539 10540 10541 10542 10542 10542 10541 10541 10540 10539 10538 10537 10536 10536 10536 10535 10535 10535 10535 10534 10534 10533 10532 10531 10531 10532 10533 10533 10533 10532 10532 10531 10531 10530 10531 10530 10530 10530 10529 10528 10528
10535 10534 10534 10535 10535 10534 10533 10533 10532 10531 10530 10530 10530 10530 10530 10528 10528 10530 10530 10529 10529 10528 10526 10525 10525 10524 10525 10525 10526 10526 10526 10526 10525 10524 10524 10524 10523 10523 10522 10521 10521 10520
10528 10528 10529 10530 10529 10527 10526 10526 10525 10522 10521 10523 10523 10524 10522 10519 10521 10524 10524 10523 10522 10520 10518 10518 10519 10520 10520 10520 10520 10520 10520 10520 10519 10518 10518 10517 10517 10516 10515 10514 10514 10513
10522 10521 10522 10523 10524 10522 10521 10521 10520 10516 10515 10517 10519 10519 10516 10511 10511 10516 10519 10517 10514 10511 10509 10510 10510 10512 10514 10514 10514 10514 10514 10513 10512 10511 10510 10510 10509 10509 10507 10506 10506 10505
10512 10513 10514 10516 10517 10517 10515 10514 10514 10511 10510 10511 10513 10515 10513 10507 10503 10506 10511 10511 10507 10505 10506 10505 10503 10503 10505 10505 10505 10506 10506 10505 10504 10503 10502 10502 10501 10501 10499 10498 10497 10496
10502 10504 10507 10508 10509 10509 10508 10507 10506 10506 10505 10505 10507 10509 10509 10505 10500 10499 10502 10503 10501 10499 10500 10499 10498 10497 10497 10496 10496 10496 10496 10496 10495 10494 10493 10492 10492 10492 10491 10489 10488 10488
10494 10496 10498 10500 10500 10500 10500 10499 10498 10498 10498 10498 10499 10500 10501 10500 10497 10494 10494 10495 10494 10492 10491 10491 10490 10490 10489 10489 10488 10487 10486 10486 10485 10483 10482 10481 10481 10481 10481 10479 10478 10477
10485 10487 10489 10490 10490 10489 10489 10490 10489 10489 10489 10489 10490 10490 10491 10490 10489 10488 10487 10486 10485 10484 10483 10482 10482 10482 10481 10481 10480 10479 10478 10476 10475 10473 10471 10470 10469 10469 10468 10468 10466 10464